Regional Weather Roundup
Issued by NWS

Home | Current Version | Previous Version | Text Only | Print | Product List | Glossary On
Versions: 1 2 3 4 5 6 7 8 9 10 11 12 13 14 15 16 17 18 19 20 21 22 23 24 25 26 27 28 29 30 31 32 33 34 35 36 37 38 39 40 41 42 43 44 45 46 47 48 49 50
000
ASUS43 KLOT 021810
RWRIL

ILLINOIS REGIONAL WEATHER ROUNDUP
NATIONAL WEATHER SERVICE CHICAGO/ROMEOVILLE IL
100 PM CDT THU OCT 02 2014

NOTE: "FAIR" INDICATES FEW OR NO CLOUDS BELOW 12,000 FEET WITH NO
SIGNIFICANT WEATHER AND/OR OBSTRUCTIONS TO VISIBILITY.

* THESE STATIONS ARE NOT UNDER NWS QUALITY CONTROL. THEY ALSO MAY NOT
  REPORT WEATHER SUCH AS PRECIPITATION OR FOG.

ILZ001-002-007-009-015-016-024-021900-
NORTHWEST ILLINOIS

CITY           SKY/WX    TMP DP  RH WIND       PRES   REMARKS
MOLINE         CLOUDY    69  63  81 S7        29.78F
6HR MIN TEMP:  58; 6HR MAX TEMP:  69;

SAVANNA*       CLOUDY    71  62  73 S9        29.81S
$$

ILZ003-004-008-010-011-017-018-021900-
NORTH CENTRAL ILLINOIS

CITY           SKY/WX    TMP DP  RH WIND       PRES   REMARKS
ROCKFORD       CLOUDY    71  62  73 S14       29.84R
6HR MIN TEMP:  63; 6HR MAX TEMP:  73;

FREEPORT*      CLOUDY    70  62  76 S14       29.84R
ROCHELLE*      CLOUDY    69  63  79 S13       29.84S
DE KALB*       CLOUDY    69  63  81 SW14      29.85F
PERU*          CLOUDY    70  64  82 S7        29.85F
$$

ILZ005-006-012>014-019>023-021900-
NORTHEAST ILLINOIS

CITY           SKY/WX    TMP DP  RH WIND       PRES   REMARKS
CHICAGO-OHARE  CLOUDY    71  63  75 SW10G22   29.84S
6HR MIN TEMP:  63; 6HR MAX TEMP:  72;

CHICAGO-MIDWAY CLOUDY    72  65  78 SW12      29.84F
6HR MIN TEMP:  66; 6HR MAX TEMP:  74;

AURORA         CLOUDY    72  63  73 S13       29.85S
6HR MIN TEMP:  64; 6HR MAX TEMP:  73;

LANSING*       CLOUDY    72  65  78 SW9       29.85F
JOLIET*        CLOUDY    71  64  80 SW3       29.85F
WAUKEGAN       CLOUDY    71  63  75 VRB5      29.82R
6HR MIN TEMP:  62; 6HR MAX TEMP:  71;

DUPAGE AIRPORT CLOUDY    70  64  81 S12       29.85R
6HR MIN TEMP:  65; 6HR MAX TEMP:  74;

KANKAKEE*      CLOUDY    75  67  75 SW8       29.85F
WHEELING       CLOUDY    73  63  70 SW10      29.86R
6HR MIN TEMP:  64; 6HR MAX TEMP:  74; 6HR PCP: TRACE;

MORRIS*        CLOUDY    72  66  82 SW7       29.84S
ROMEOVILLE*    CLOUDY    71  63  76 SW9       29.85S
NORTHERLY ISL    N/A     71  63  75 S9          N/A
$$

LMZ740>746-021900-
SOUTHERN LAKE MICHIGAN

STATION/POSITION SKY/WX   TEMP    WIND        PRES    VSBY  WAVE
                          AIR SEA DIR/SP/G                  HT/PER
                          (F)     (DEG/KT/KT) (MB)    (MI)  (FT/S)
SOUTHERN BUOY              64 62  160/ 14/ 16 1010.3F         2/ 4
WAUKEGAN HARBOR            64     160/ 12/ 15   N/A
HARRISON CRIB              66     170/ 16/ 18   N/A
BURNHAM HARBOR             71     190/  9/ 14   N/A
CALUMET HARBOR             69     170/  7/ 12 1009.6F
MICHIGAN CITY              69     180/  9/ 12   N/A
MICHIGAN CITY 6N           67 64  180/  6/ 10   N/A           1
ST. JOSEPH                 66 63  170/  8/ 12   N/A           1
$$

ILZ025>027-034>036-040-047-049-050-058-095>099-021900-
WEST-CENTRAL ILLINOIS

CITY           SKY/WX    TMP DP  RH WIND       PRES   REMARKS
QUINCY         CLOUDY    68  63  84 S13       29.75F
GALESBURG*     LGT RAIN  66  63  92 SE3       29.77F
MACOMB*        CLOUDY    67  63  89 SE3       29.79F
JACKSONVILLE*  CLOUDY    68  66  93 E7        29.80F
PITTSFIELD*    CLOUDY    68  65  90 SE7       29.79F
$$

ILZ028>032-037-038-041>044-048-051>054-059>061-021900-
CENTRAL ILLINOIS

CITY           SKY/WX    TMP DP  RH WIND       PRES   REMARKS
PONTIAC        CLOUDY    75  66  73 SW7       29.85S
BLOOMINGTON    MOSUNNY   71  67  87 SW17G23     N/A
DECATUR        HVY RAIN  69  67  93 W16G25    29.88S VSB 1/2
PEORIA         LGT RAIN  69  64  84 SW10      29.82F
6HR MIN TEMP:  67; 6HR MAX TEMP:  70; 6HR PCP:  0.01;

LACON*         LGT RAIN  67  64  89 S6        29.85R
LINCOLN*       RAIN      69  67  92 SW7       29.85S
SPRINGFIELD    LGT RAIN  68  65  90 S3        29.85F
6HR MIN TEMP:  66; 6HR MAX TEMP:  71; 6HR PCP:  0.15;

TAYLORVILLE    CLOUDY    64  64 100 W6        29.88F
$$

ILZ033-039-045-046-055>057-062-063-021900-
EAST-CENTRAL ILLINOIS

CITY           SKY/WX    TMP DP  RH WIND       PRES   REMARKS
DANVILLE*      PTSUNNY   73  65  75 SW12      29.85S
RANTOUL*       PTSUNNY   76  65  68 SW15G22   29.87S
MATTOON        CLOUDY    76  67  73 S10       29.86F
PARIS*         PTSUNNY   78  69  73 S14       29.88F HX  80
$$

ILZ079-100>102-021900-
SOUTHWEST ILLINOIS

CITY           SKY/WX    TMP DP  RH WIND       PRES   REMARKS
ALTON          PTSUNNY   68  66  94 VRB6      29.86F
BELLEVILLE     CLOUDY    72  66  83 W12       29.82F THUNDER
CAHOKIA*       LGT RAIN  70  66  87 N10       29.84F
SPARTA*        PTSUNNY   83  71  65 S13       29.84F HX  88
$$

ILZ064>066-069>071-074>076-080>082-084>086-088>090-092>094-021900-
SOUTH-CENTRAL ILLINOIS

CITY           SKY/WX    TMP DP  RH WIND       PRES   REMARKS
CARBONDALE     TSTM      75  71  87 SW12      29.87F FOG
6HR MIN TEMP:  71; 6HR MAX TEMP:  83; 6HR PCP:  0.02;

CAIRO*         PTSUNNY   86  71  60 S17G24    29.88F HX  91
EFFINGHAM*     CLOUDY    80  65  60 S7        29.87F HX  81
MARION         CLOUDY    84  70  61 S15       29.87F HX  88
CENTRALIA*     PTSUNNY   76  70  80 S10       29.86F
SALEM*         HVY RAIN  75  71  87 S18       29.86F
METROPOLIS*    PTSUNNY   85  71  62 S12G17    29.88F HX  90
$$

ILZ067-068-072-073-078-083-087-091-021900-
SOUTHEAST ILLINOIS

CITY           SKY/WX    TMP DP  RH WIND       PRES   REMARKS
LAWRENCEVILLE  MOSUNNY   87  67  51 S13       29.89F HX  90
FAIRFIELD*     PTSUNNY   86  70  58 S15       29.86F HX  90
HARRISBURG*    MOSUNNY   84  67  56 S17       29.89F HX  87
ROBINSON*      MOSUNNY   84  68  57 SW10G16   29.89F HX  87
CARMI*         MOSUNNY   87  68  52 S12       29.88F HX  91
$$

ABBREVIATIONS USED IN REMARKS
   TC - TEMPERATURE IN CELSIUS
  WCI - WIND CHILL INDEX
   HX - HEAT INDEX
  VSB - VISIBILITY
$$



USA.gov is the U.S. government's official web portal to all federal, state and local government web resources and services.